sat.trackr.live / text

‹ back to catalog

STARLINK-5285

NORAD 55296 · 2023-010AD

PAYLOAD ACTIVE UNKNOWN

§ Identity

Operator
Country
US
Launch date
2023-01-19
Launch site
AFWTR
Launch vehicle
Mass (kg)
RCS (m²)

Purposes: comms

External: N2YO · Heavens-Above · Gunter

§ Orbital elements

Epoch: 2026-05-25T03:22:24.485088Z

Period
96.11 min
Inclination
69.9987°
Eccentricity
0.0003639
Mean motion
14.98328015 rev/d
Perigee alt
569.5 km
Apogee alt
574.6 km
Semi-major
6,950.2 km
B*
5.5544e-5
RAAN
191.5771°
Arg perigee
266.2238°
Mean anomaly
93.8505°
Rev number
18,560

§ Raw data

STARLINK-52851 55296U 23010AD  26145.14056117  .00000570  00000+0  55544-4 0  99942 55296  69.9987 191.5771 0003639 266.2238  93.8505 14.98328015185609

JSON: /api/v1/satellites/55296 · /tle

For live sub-satellite position, see the globe view (requires WebGL).

§ Visibility from observer

Set your observer location to see the next 7 days of passes ≥ 10°. The values pass through the URL so the page stays shareable.

No JS? Fill the form by hand. The geolocation button needs JavaScript.